THORAD AGENA D DEB

Satellite information

Favourite Embed

Satellite Type and Status

DEBRISIN ORBIT

Key statistics

Satellite THORAD AGENA D DEB at a glance.

Uptime

20369

Days in orbit

Revolutions

≈ 14.0

Per day

Orbit

LEO

Low Earth Orbit

Inclination

70.0

Latest

Satellite identification and parameters

Extended collection of information and parameters for THORAD AGENA D DEB.

Object identification

Identified? True

Debris? True

Object name: THORAD AGENA D DEB

International designator: 1969-082BY

Object number (NORAD): 4209

Object ID (CCSDS): 4209

Country: UNITED STATES OF AMERICA (US)

Current information (Y/N): Y

RCS size: MEDIUM

Orbital parameters

Period: 102.493 minutes

Inclination: 70.0311 deg

SMA: 7254.748 km

Apoapsis: 904.307 km

Periapsis: 848.919 km

RAAN: 238.8629 deg

Eccentricy: 0.0038174

Argument of periapsis: 54.6849 deg

Mean anomaly: 305.7821 deg

Mean motion: 14.04977193 rev/day

Mean motion (dot): -0.00000097 rev/day2

B* drag term: -0.000026412 1/REarth

Two-line elements (TLE)

Creation date: July 6, 2025, 6:05 p.m.

Reference frame: TEME

Reference center: EARTH

Epoch: July 6, 2025, 1:49 p.m. UTC

TLE line 0: 0 THORAD AGENA D DEB

TLE line 1: 1 04209U 69082BY 25187.57602234 -.00000097 00000-0 -26412-4 0 9999

TLE line 2: 2 04209 70.0311 238.8629 0038174 54.6849 305.7821 14.04977193855410

Live tracking on map

Real-time ground track for satellite THORAD AGENA D DEB.

In-orbit conjunctions

A list of the most updated potential collisions computed for object THORAD AGENA D DEB.

Target Orbit TCA Probability of collision Miss distance Type
FENGYUN 1C DEB SSO 2025-01-20 16:22:28 0.0002745227 215.0 (m) DEBRIS
CZ-6A DEB SSO 2024-10-09 00:59:00 0.0001739401 77.0 (m) DEBRIS
DIAPASON (D1-A) MEO 2024-08-21 19:38:41 0.0001189529 488.0 (m) PAYLOAD
FENGYUN 1C DEB SSO 2024-05-28 02:09:30 0.0002041701 24.0 (m) DEBRIS

Associated space launch

Poppy was the follow-on ELINT system, which succeeded the Grab ELINT satellite system.

THORAD AGENA D DEB was lifted into orbit during the mission ‘Thorad SLV-2G Agena D | Poppy 8A,B,C,D’, on board a Thorad SLV-2G Agena D space rocket.

The launch took place on Sept. 30, 1969, 1:40 p.m. from Space Launch Complex 1W.

For more information about the launch, click the button.

Launch to space Thorad SLV-2G Agena D | Poppy 8A,B,C,D
Thorad SLV-2G Agena D | Poppy 8A,B,C,D

Agency: N/A

Status: Launch Successful

Launch date: Sept. 30, 1969, 1:40 p.m. UTC

Rocket: Thorad SLV-2G Agena D

Launch pad: Space Launch Complex 1W

Location: Vandenberg SFB, CA, USA

...

Latest news about this satellite

There are no fresh news available about this satellite. Check back as we update our databases every day.


Newsletter sign-up

Weekly statistics, charts and insights to help you stay on top of the space industry.